Skip Page Navigation
NASA JPL Caltech
NASA Logo - Jet Propulsion Laboratory + View the NASA Portal
+ Center for Near-Earth Object Studies
JPL Home Earth Solar System Stars & Galaxies Technology
JPL Solar System Dynamics
BODIES ORBITS EPHEMERIDES TOOLS PHYSICAL DATA DISCOVERY FAQ SITE MAP
JPL Small-Body Database Browser
Search: [ help ]  
351084 (2003 UT106)
Classification: Main-belt Asteroid          SPK-ID: 2351084
Ephemeris | Orbit Diagram | Orbital Elements | Mission Design | Physical Parameters | Discovery Circumstances ]

[ hide orbit diagram ]

For accurate long-term ephemerides, please instead use our Horizons system.This orbit viewer was implemented using two-body methods, and hence should not be used for determining accurate long-term trajectories (over several years or decades) or planetary encounter circumstances.


[ revert to old Java-based viewer ]

Orbital Elements at Epoch 2459000.5 (2020-May-31.0) TDB
Reference: JPL 9 (heliocentric ecliptic J2000)
 Element Value Uncertainty (1-sigma)   Units 
e .1453315727665281 1.2634e-07  
a 2.665562752823113 2.4601e-08 au
q 2.278172325647454 3.4052e-07 au
i 12.0229134576236 1.4749e-05 deg
node 251.7805617680683 4.9853e-05 deg
peri 185.4595036001648 6.9548e-05 deg
M 263.7617955445375 4.7412e-05 deg
tp 2459425.439208365973
(2021-Jul-29.93920837)
0.0002115 TDB
period 1589.577817638381
4.35
2.2005e-05
6.025e-08
d
yr
n .2264752288345645 3.1352e-09 deg/d
Q 3.052953179998772 2.8176e-08 au
  Orbit Determination Parameters
   # obs. used (total)      140  
   data-arc span      5734 days (15.70 yr)  
   first obs. used      2003-10-18  
   last obs. used      2019-06-30  
   planetary ephem.      DE431  
   SB-pert. ephem.      SB431-N16  
   condition code      0  
   norm. resid. RMS      .58278  
   source      ORB  
   producer      Otto Matic  
   solution date      2019-Sep-24 06:36:50  

Additional Information
 Earth MOID = 1.29368 au 
 Jupiter MOID = 2.22299 au 
 T_jup = 3.337 
[ show covariance matrix ]

Ephemeris | Orbit Diagram | Orbital Elements | Mission Design | Physical Parameters | Discovery Circumstances ]

Physical Parameter Table
Parameter Symbol Value Units Sigma Reference Notes
absolute magnitude H 16.4   n/a MPO446571  

351084 (2003 UT106)          Discovered 2003-Oct-18 by NEAT at Palomar
Reference: 20130127/Numbers.arcLast Updated: 2013-01-31
Ephemeris | Orbit Diagram | Orbital Elements | Mission Design | Physical Parameters | Discovery Circumstances ]
ABOUT SSD CREDITS/AWARDS PRIVACY/COPYRIGHT GLOSSARY LINKS
FirstGov 2020-Aug-04 17:55 UT
(server date/time)  
NASA Home Page
Site Manager:   Ryan S. Park
Webmaster  Alan B. Chamberlin